Regional Weather Roundup
Issued by NWS

Home | Current Version | Previous Version | Graphics & Text | Print | Product List | Glossary On
Versions: 1 2 3 4 5 6 7 8 9 10 11 12 13 14 15 16 17 18 19 20 21 22 23 24 25 26 27 28 29 30 31 32 33 34 35 36 37 38 39 40 41 42 43 44 45 46 47 48 49 50
000
ASUS43 KTOP 022308
RWRKS

WEATHER ROUNDUP FOR KANSAS
NATIONAL WEATHER SERVICE GOODLAND KS
600 PM CDT TUE SEP 02 2014

NOTE:  "FAIR" INDICATES FEW OR NO CLOUDS BELOW 12,000 FEET WITH NO
SIGNIFICANT WEATHER AND/OR OBSTRUCTIONS TO VISIBILITY.

KSZ001>006-013>018-027>032-041>047-030000-
NORTHWEST KANSAS

CITY           SKY/WX    TMP DP  RH WIND       PRES   REMARKS
GOODLAND       SUNNY     84  56  38 S18G25    29.96F
HAYS           MOSUNNY   82  66  57 SE12G18   29.93F
HILL CITY      SUNNY     84  66  54 S9        29.93F
RUSSELL        MOSUNNY   84  68  58 SE10      29.91F
$$

KSZ061>065-074>080-084>089-030000-
SOUTHWEST KANSAS

CITY           SKY/WX    TMP DP  RH WIND       PRES   REMARKS
DODGE CITY     SUNNY     84  62  47 S10       29.94F
ELKHART          N/A     86  62  44 SE15        N/A
GARDEN CITY    MOSUNNY   81  64  56 S9        29.95F
GREAT BEND     SUNNY     84  66  54 S14       29.92F
LIBERAL        PTSUNNY   84  64  51 SE12      29.95F
PRATT          SUNNY     82  64  54 S9        29.94F
$$

KSZ066>073-081>083-090>101-030000-
SOUTHEAST KANSAS

CITY           SKY/WX    TMP DP  RH WIND       PRES   REMARKS
CHANUTE        SUNNY     84  66  54 S9        29.94S
COFFEYVILLE    SUNNY     82  69  64 S8        29.93F
HUTCHINSON     SUNNY     86  66  51 S12       29.92F
MEDICINE LODGE   N/A     84  71  65 VRB6      29.89F
NEWTON         SUNNY     82  63  51 SE8       29.97F
PARSONS        SUNNY     81  68  64 VRB3      29.95F
WICHITA INTL   MOSUNNY   86  67  52 SE10      29.92S
WICHITA JABRA  SUNNY     84  65  52 S5        29.92F
WICHITA MCCONL SUNNY     85  67  55 SE9       29.93F
WINFIELD       PTSUNNY   82  72  71 SE8       29.94S
$$

KSZ007>012-019>026-033>040-048>060-102>105-030000-
NORTHEAST KANSAS

CITY           SKY/WX    TMP DP  RH WIND       PRES   REMARKS
CONCORDIA      SUNNY     83  65  54 SE6       29.92F
EMPORIA        SUNNY     84  67  56 SE8       29.93F
LAWRENCE       SUNNY     82  66  58 SE3       29.94S
MANHATTAN      SUNNY     86  67  52 S6        29.91F
OLATHE IND     SUNNY     81  68  64 VRB3      29.95F
OLATHE EXE     MOSUNNY   79  68  69 S6        29.95S
SALINA         MOSUNNY   87  68  52 S13       29.91F
TOPEKA BILLARD SUNNY     86  66  51 VRB3      29.93F
TOPEKA FORBES  SUNNY     83  65  54 W3        29.93F
$$


USA.gov is the U.S. government's official web portal to all federal, state and local government web resources and services.